When you browse on this site, cookies collect data to enhance your experience and personalize the content and advertising you see.
Visit our Privacy Policy to learn more. By continuing to use the site, you agree to this use of cookies and data.
EN

Hourly Weather Trifonovka

Today, 18 September, Friday

Time Temperature Precipitation Wind Pressure Humidity
00:00 +7°C° 0 mm 1 mps 743 mmHg 88%
01:00 +6°C° 0 mm 2 mps 743 mmHg 89%
02:00 +6°C° 0 mm 2 mps 743 mmHg 90%
03:00 +6°C° 0 mm 2 mps 743 mmHg 91%
04:00 +5°C° 0 mm 3 mps 743 mmHg 90%
05:00 +5°C° 0 mm 3 mps 742 mmHg 87%
06:00 +5°C° 0 mm 4 mps 742 mmHg 84%
07:00 +6°C° 0 mm 4 mps 741 mmHg 80%
08:00 +8°C° 0 mm 5 mps 741 mmHg 72%
09:00 +10°C° 0 mm 6 mps 741 mmHg 65%
10:00 +12°C° 0 mm 7 mps 742 mmHg 58%
11:00 +14°C° 0 mm 7 mps 742 mmHg 54%
12:00 +15°C° 0 mm 8 mps 741 mmHg 51%
13:00 +16°C° 0 mm 8 mps 741 mmHg 47%
14:00 +17°C° 0 mm 7 mps 741 mmHg 47%
15:00 +17°C° 0 mm 7 mps 740 mmHg 48%
16:00 +17°C° 0 mm 6 mps 740 mmHg 49%
17:00 +16°C° 0 mm 6 mps 740 mmHg 51%
18:00 +15°C° 0 mm 5 mps 739 mmHg 53%
19:00 +13°C° 0 mm 5 mps 739 mmHg 55%
20:00 +13°C° 0 mm 5 mps 739 mmHg 55%
21:00 +13°C° 0 mm 5 mps 739 mmHg 55%
22:00 +12°C° 0 mm 5 mps 739 mmHg 55%
23:00 +12°C° 0 mm 5 mps 739 mmHg 55%

Tomorrow, 19 September, Saturday

Time Temperature Precipitation Wind Pressure Humidity
00:00 +10°C° 0 mm 5 mps 738 mmHg 55%
01:00 +10°C° 0 mm 5 mps 737 mmHg 55%
02:00 +10°C° 0 mm 5 mps 737 mmHg 56%
03:00 +9°C° 0 mm 5 mps 737 mmHg 57%
04:00 +9°C° 0 mm 5 mps 736 mmHg 58%
05:00 +9°C° 0 mm 5 mps 736 mmHg 57%
06:00 +9°C° 0 mm 5 mps 735 mmHg 56%
07:00 +8°C° 0 mm 5 mps 734 mmHg 56%
08:00 +9°C° 0 mm 6 mps 734 mmHg 54%
09:00 +10°C° 0 mm 7 mps 734 mmHg 53%
10:00 +11°C° 0 mm 7 mps 734 mmHg 52%
11:00 +11°C° 0.2 mm 7 mps 733 mmHg 57%
12:00 +10°C° 0.2 mm 7 mps 733 mmHg 63%
13:00 +10°C° 0.2 mm 6 mps 732 mmHg 69%
14:00 +9°C° 0.1 mm 6 mps 732 mmHg 75%
15:00 +9°C° 0.1 mm 5 mps 731 mmHg 81%
16:00 +10°C° 0.1 mm 4 mps 731 mmHg 87%
17:00 +9°C° 1.7 mm 3 mps 730 mmHg 90%
18:00 +9°C° 1.7 mm 2 mps 730 mmHg 93%
19:00 +10°C° 1.7 mm 1 mps 730 mmHg 97%
20:00 +9°C° 1.7 mm 2 mps 729 mmHg 97%
21:00 +9°C° 1.7 mm 2 mps 729 mmHg 97%
22:00 +9°C° 1.7 mm 3 mps 729 mmHg 97%
23:00 +8°C° 1 mm 4 mps 728 mmHg 95%

Day after tomorrow, 20 September, Sunday

Time Temperature Precipitation Wind Pressure Humidity
00:00 +8°C° 1 mm 5 mps 728 mmHg 93%
01:00 +8°C° 1 mm 7 mps 727 mmHg 91%
02:00 +6°C° 0.5 mm 7 mps 727 mmHg 90%
03:00 +5°C° 0.5 mm 8 mps 727 mmHg 89%
04:00 +5°C° 0.5 mm 8 mps 727 mmHg 88%
05:00 +4°C° 0 mm 8 mps 727 mmHg 87%
06:00 +2°C° 0 mm 8 mps 728 mmHg 86%
07:00 +2°C° 0 mm 8 mps 728 mmHg 86%
08:00 +4°C° 0 mm 8 mps 728 mmHg 81%
09:00 +5°C° 0 mm 8 mps 729 mmHg 77%
10:00 +6°C° 0 mm 8 mps 729 mmHg 73%
11:00 +6°C° 0 mm 8 mps 730 mmHg 71%
12:00 +8°C° 0 mm 7 mps 730 mmHg 69%
13:00 +8°C° 0 mm 7 mps 731 mmHg 67%
14:00 +8°C° 0.2 mm 7 mps 731 mmHg 67%
15:00 +9°C° 0.2 mm 7 mps 731 mmHg 67%
16:00 +9°C° 0.2 mm 6 mps 731 mmHg 67%
17:00 +8°C° 0.2 mm 6 mps 732 mmHg 73%
18:00 +7°C° 0.2 mm 5 mps 732 mmHg 78%
19:00 +5°C° 0.2 mm 5 mps 732 mmHg 83%
20:00 +5°C° 0 mm 5 mps 733 mmHg 83%
21:00 +5°C° 0 mm 5 mps 733 mmHg 83%
22:00 +5°C° 0 mm 5 mps 734 mmHg 84%
23:00 +3°C° 0 mm 5 mps 734 mmHg 85%

21 September, Monday

Time Temperature Precipitation Wind Pressure Humidity
00:00 +3°C° 0 mm 5 mps 735 mmHg 87%
01:00 +3°C° 0 mm 5 mps 735 mmHg 89%
02:00 +3°C° 0 mm 5 mps 735 mmHg 87%
03:00 +3°C° 0 mm 5 mps 736 mmHg 85%
04:00 +3°C° 0 mm 5 mps 736 mmHg 84%
05:00 +3°C° 0.2 mm 6 mps 736 mmHg 85%
06:00 +3°C° 0.2 mm 6 mps 736 mmHg 87%
07:00 +3°C° 0.2 mm 6 mps 737 mmHg 89%
08:00 +3°C° 0.1 mm 6 mps 737 mmHg 85%
09:00 +4°C° 0.1 mm 7 mps 737 mmHg 81%
10:00 +5°C° 0.1 mm 7 mps 738 mmHg 76%
11:00 +5°C° 0.1 mm 7 mps 738 mmHg 75%
12:00 +5°C° 0.1 mm 7 mps 738 mmHg 75%
13:00 +5°C° 0.1 mm 7 mps 738 mmHg 74%
14:00 +6°C° 0 mm 7 mps 738 mmHg 71%
15:00 +6°C° 0 mm 7 mps 737 mmHg 69%
16:00 +8°C° 0 mm 6 mps 737 mmHg 66%
17:00 +6°C° 0.1 mm 7 mps 737 mmHg 72%
18:00 +6°C° 0.1 mm 7 mps 737 mmHg 77%
19:00 +5°C° 0.1 mm 7 mps 736 mmHg 82%
20:00 +5°C° 0.6 mm 7 mps 736 mmHg 85%
21:00 +5°C° 0.6 mm 8 mps 735 mmHg 87%
22:00 +5°C° 0.6 mm 8 mps 734 mmHg 90%
23:00 +5°C° 1 mm 8 mps 734 mmHg 89%

22 September, Tuesday

Time Temperature Precipitation Wind Pressure Humidity
00:00 +6°C° 1 mm 8 mps 734 mmHg 87%
01:00 +6°C° 1 mm 8 mps 734 mmHg 86%
02:00 +5°C° 0 mm 8 mps 734 mmHg 86%
03:00 +4°C° 0 mm 7 mps 735 mmHg 87%
04:00 +3°C° 0 mm 7 mps 736 mmHg 87%
05:00 +3°C° 0 mm 7 mps 737 mmHg 87%
06:00 +3°C° 0 mm 7 mps 737 mmHg 86%
07:00 +3°C° 0 mm 7 mps 738 mmHg 86%
08:00 +3°C° 0 mm 7 mps 739 mmHg 82%
09:00 +4°C° 0 mm 7 mps 740 mmHg 78%
10:00 +4°C° 0 mm 7 mps 741 mmHg 74%
11:00 +5°C° 0 mm 6 mps 741 mmHg 72%
12:00 +5°C° 0 mm 6 mps 742 mmHg 70%
13:00 +5°C° 0 mm 6 mps 743 mmHg 68%
14:00 +6°C° 0 mm 5 mps 743 mmHg 68%
15:00 +7°C° 0 mm 5 mps 743 mmHg 68%
16:00 +7°C° 0 mm 5 mps 744 mmHg 67%
17:00 +6°C° 0 mm 4 mps 744 mmHg 72%
18:00 +5°C° 0 mm 3 mps 744 mmHg 77%
19:00 +5°C° 0 mm 2 mps 745 mmHg 82%
20:00 +5°C° 0 mm 2 mps 745 mmHg 83%
21:00 +5°C° 0 mm 2 mps 745 mmHg 85%
22:00 +5°C° 0 mm 2 mps 745 mmHg 87%
23:00 +4°C° 0 mm 3 mps 745 mmHg 86%

23 September, Wednesday

Time Temperature Precipitation Wind Pressure Humidity
00:00 +4°C° 0 mm 3 mps 745 mmHg 85%
01:00 +4°C° 0 mm 3 mps 745 mmHg 84%
02:00 +4°C° 0 mm 3 mps 745 mmHg 83%
03:00 +4°C° 0 mm 4 mps 745 mmHg 83%
04:00 +4°C° 0 mm 4 mps 745 mmHg 82%
05:00 +4°C° 0 mm 4 mps 745 mmHg 82%
06:00 +4°C° 0 mm 4 mps 745 mmHg 83%
07:00 +4°C° 0 mm 4 mps 745 mmHg 84%
08:00 +6°C° 0 mm 5 mps 745 mmHg 81%
09:00 +8°C° 0 mm 5 mps 745 mmHg 79%
10:00 +10°C° 0 mm 6 mps 745 mmHg 77%
11:00 +13°C° 0 mm 6 mps 745 mmHg 74%
12:00 +15°C° 0 mm 6 mps 745 mmHg 71%
13:00 +16°C° 0 mm 6 mps 745 mmHg 68%
14:00 +16°C° 0 mm 6 mps 745 mmHg 68%
15:00 +17°C° 0 mm 6 mps 745 mmHg 67%
16:00 +17°C° 0 mm 5 mps 745 mmHg 67%
17:00 +15°C° 0 mm 5 mps 745 mmHg 73%
18:00 +14°C° 0 mm 4 mps 745 mmHg 80%
19:00 +12°C° 0 mm 3 mps 745 mmHg 86%
20:00 +12°C° 0 mm 3 mps 746 mmHg 87%
21:00 +11°C° 0 mm 3 mps 746 mmHg 88%
22:00 +11°C° 0 mm 3 mps 746 mmHg 89%
23:00 +10°C° 0 mm 3 mps 746 mmHg 89%
Show more